Regional Weather Roundup
Issued by NWS Kansas City/Pleasant Hill, MO

Home | Current Version | Previous Version | Text Only | Print | Product List | Glossary On
Versions: 1 2 3 4 5 6 7 8 9 10 11 12 13 14 15 16 17 18 19 20 21 22 23 24 25 26 27 28 29 30 31 32 33 34 35 36 37 38 39 40 41 42 43 44 45 46 47 48 49 50
000
ASUS43 KEAX 051811
RWREAX

WEATHER ROUNDUP FOR EASTERN KANSAS AND NORTHWEST MISSOURI
NATIONAL WEATHER SERVICE KANSAS CITY/PLEASANT HILL MO
1200 PM CST THU MAR 05 2015

KSZ040-057-103>105-MOZ028-029-037-043-051900-
...KANSAS CITY METROPOLITAN AREA...

CITY           SKY/WX    TMP DP  RH WIND       PRES   REMARKS
K.C. INTL      SUNNY     22   0  38 CALM      30.56F
6HR MIN TEMP:   6; 6HR MAX TEMP:  23;

K.C. DOWNTOWN  SUNNY     24  -1  33 CALM      30.58F
6HR MIN TEMP:  11; 6HR MAX TEMP:  26;

LEES SUMMIT    SUNNY     24   0  35 VRB5      30.57F WCI  18
6HR MIN TEMP:  10; 6HR MAX TEMP:  25;

OLATHE - IXD   SUNNY     25   3  38 NE6       30.56F WCI  18
6HR MIN TEMP:   6; 6HR MAX TEMP:  25;

OLATHE - OJC   SUNNY     24  -1  33 CALM      30.55F
6HR MIN TEMP:  11; 6HR MAX TEMP:  24;

LAWRENCE       SUNNY     25   0  33 CALM      30.58F

$$

MOZ001>008-011>017-020>025-030>033-038>040-044>046-053-054-051900-
...NORTHERN AND CENTRAL MISSOURI...

CITY           SKY/WX    TMP DP  RH WIND       PRES   REMARKS
ST. JOSEPH     SUNNY     21  -1  38 CALM      30.58F
6HR MIN TEMP:   3; 6HR MAX TEMP:  22;

MOSBY          CLEAR     23   0  36 N5        30.59F WCI  17
WARRENSBURG    SUNNY     25   1  36 NW9       30.59F WCI  15
WHITEMAN AFB   SUNNY     23   3  41 N9        30.56F WCI  13
6HR MIN TEMP:  12; 6HR MAX TEMP:  23;

CLINTON        SUNNY     25  10  54 N7        30.60S WCI  17
SEDALIA        SUNNY     23   6  48 NW12      30.58F WCI  12
6HR MIN TEMP:  13; 6HR MAX TEMP:  23;

WARSAW         NOT AVBL
MARSHALL       SUNNY     21   5  49 N10       30.60  WCI  10
CHILLICOTHE      N/A     22   2  42 NW6       30.60F WCI  14
6HR MIN TEMP:   8; 6HR MAX TEMP:  22;

MOBERLY        PTSUNNY   23   9  54 E3        30.58S
KIRKSVILLE     SUNNY     20   1  43 NW10      30.56S WCI   9
6HR MIN TEMP:   9; 6HR MAX TEMP:  20;


$$

MOZ041-047>049-056>058-063>065-088>090-097-051900-
...EASTERN AND SOUTHERN MISSOURI...

CITY           SKY/WX    TMP DP  RH WIND       PRES   REMARKS
ST. LOUIS INTL PTSUNNY   22   8  55 NW13      30.57R WCI  10
6HR MIN TEMP:  16; 6HR MAX TEMP:  24;

SPIRIT OF STL  PTSUNNY   24   9  52 NW10      30.57S WCI  14
COLUMBIA       SUNNY     23   9  55 VRB6      30.55F WCI  16
JEFFERSON CITY SUNNY     24   9  52 W10       30.59S WCI  14
MEXICO         MOSUNNY   21  10  63 NW8       30.57S WCI  12
HANNIBAL       SUNNY     21   1  42 NW8       30.58S WCI  12
ROLLA          SUNNY     24  10  55 N13       30.51R WCI  12
LEBANON        SUNNY     28   5  37 NW12G18   30.52S WCI  18
OSAGE BEACH    SUNNY     27   7  43 N9        30.56S WCI  17
SPRINGFIELD    SUNNY     26   7  44 N9        30.54S WCI  17
BRANSON        SUNNY     30  10  43 N16       30.53F WCI  19
NEVADA         SUNNY     27   7  43 N6        30.59F WCI  20
JOPLIN         SUNNY     28  11  48 VRB6      30.57S WCI  22
WEST PLAINS    SUNNY     28   5  37 N15G28    30.51R WCI  16

$$

IAZ060-094-KSZ022-034>040-054-083-096-NEZ052-066-093-051900-
...KANSAS...SOUTHEAST NEBRASKA AND IOWA...

CITY           SKY/WX    TMP DP  RH WIND       PRES   REMARKS
TOPEKA         SUNNY     24   2  38 CALM      30.57F
6HR MIN TEMP:  10; 6HR MAX TEMP:  27;

MANHATTAN      SUNNY     29   4  34 VRB5      30.53F WCI  24
EMPORIA        SUNNY     28   9  44 VRB6      30.53F WCI  22
CHANUTE        SUNNY     31  10  41 VRB3      30.56F
WICHITA        SUNNY     37  15  40 W9        30.50F WCI  30
OMAHA          SUNNY     19   1  45 S7        30.54F WCI  10
LINCOLN        SUNNY     23   2  40 SE8       30.51F WCI  14
FALLS CITY     SUNNY     23  -1  35 CALM      30.56F
LAMONI         SUNNY     16   0  49 W9        30.55F WCI   4
DES MOINES     SUNNY     14  -4  44 W6        30.57S WCI   5

$$



USA.gov is the U.S. government's official web portal to all federal, state and local government web resources and services.